Location: Mahannah Oil Field
(37.4664°N, 96.6003°W)
Time: 19:38:16
(UTC+00:00)

Transit 2A Rocket - Pass Details

Date: 21 January 2021
Orbit: 594 x 908 km, 66.7° (Epoch: 07 March)

Event Time Altitude Azimuth Distance (km) Brightness Sun altitude
Rises 03:26:06 0° 345° (NNW) 2,910 - -45.0°
Reaches altitude 10° 03:28:55 10° 2° (N) 1,967 - -45.6°
Maximum altitude 03:32:12 20° 51° (NE) 1,382 - -46.2°
Drops below altitude 10° 03:35:26 10° 100° (E) 1,924 - -46.8°
Sets 03:38:08 0° 118° (ESE) 2,826 - -47.4°
